FENGYUN 1C DEB

Satellite information

Favourite Embed

Satellite Type and Status

DEBRISIN ORBIT

Key statistics

Satellite FENGYUN 1C DEB at a glance.

Uptime

9555

Days in orbit

Revolutions

≈ 14.4

Per day

Orbit

SSO

Sun Synchronous Orbit

Inclination

98.6

Latest

Satellite identification and parameters

Extended collection of information and parameters for FENGYUN 1C DEB.

Object identification

Identified? True

Debris? True

Object name: FENGYUN 1C DEB

International designator: 1999-025YL

Object number (NORAD): 30275

Object ID (CCSDS): 30275

Country: PEOPLES REPUBLIC OF CHINA (PRC)

Current information (Y/N): Y

RCS size: SMALL

Orbital parameters

Period: 99.819 minutes

Inclination: 98.6345 deg

SMA: 7128.007 km

Apoapsis: 776.864 km

Periapsis: 722.881 km

RAAN: 269.5233 deg

Eccentricy: 0.0037867

Argument of periapsis: 304.3953 deg

Mean anomaly: 186.7563 deg

Mean motion: 14.42615387 rev/day

Mean motion (dot): 0.00003839 rev/day2

B* drag term: 0.0011588 1/REarth

Two-line elements (TLE)

Creation date: July 6, 2025, 6:05 p.m.

Reference frame: TEME

Reference center: EARTH

Epoch: July 6, 2025, 11:22 a.m. UTC

TLE line 0: 0 FENGYUN 1C DEB

TLE line 1: 1 30275U 99025YL 25187.47392457 .00003839 00000-0 11588-2 0 9994

TLE line 2: 2 30275 98.6345 269.5233 0037867 304.3953 186.7563 14.42615387957864

Live tracking on map

Real-time ground track for satellite FENGYUN 1C DEB.

In-orbit conjunctions

A list of the most updated potential collisions computed for object FENGYUN 1C DEB.

Target Orbit TCA Probability of collision Miss distance Type
IUS R/B(1) GTO 2025-05-26 20:59:48 0.0001249587 903.0 (m) ROCKET BODY
COSMOS 494 LEO 2025-01-30 18:18:32 0.0002258634 811.0 (m) PAYLOAD
COSMOS 2251 DEB LEO 2024-11-14 23:19:29 0.01254542 3.0 (m) DEBRIS

Associated space launch

Chinese polar orbiting meteorological satellite

FENGYUN 1C DEB was lifted into orbit during the mission ‘Long March 4B | Feng Yun 1C’, on board a Long March 4B space rocket.

The launch took place on May 10, 1999, 1:33 a.m. from Launch Complex 7.

For more information about the launch, click the button.

Launch to space Long March 4B | Feng Yun 1C
Long March 4B | Feng Yun 1C

Agency: N/A

Status: Launch Successful

Launch date: May 10, 1999, 1:33 a.m. UTC

Rocket: Long March 4B

Launch pad: Launch Complex 7

Location: Taiyuan Satellite Launch Center, People's Republic of China

...

Latest news about this satellite

There are no fresh news available about this satellite. Check back as we update our databases every day.


Newsletter sign-up

Weekly statistics, charts and insights to help you stay on top of the space industry.